Location: Area 52 Observatory
(34.2620°N, 119.2590°W)
Time: 23:08:58
(UTC-07:00)

Tiangong 2 - Pass Details

Date: 21 March 2019
Orbit: 378 x 389 km, 42.8° (Epoch: 20 April)

Event Time Altitude Azimuth Distance (km) Brightness Sun altitude
Exits shadow 06:21:22 - 300° (WNW) 1,561 3.7 -8.7°
Reaches altitude 10° 06:21:46 10° 301° (WNW) 1,399 3.4 -8.6°
Maximum altitude 06:24:55 78° 28° (NNE) 394 1.2 -8.0°
Drops below altitude 10° 06:28:04 10° 115° (ESE) 1,401 5.0 -7.3°
Sets 06:30:09 0° 117° (ESE) 2,255 6.1 -6.9°
